{"data":{"norad_id":56073,"epoch":"2026-09-18T22:45:24.026400Z","epoch_age_seconds":152202,"freshness":"FRESH","line1":"1 56073U 23043AD  26261.94819475  .00000086  00000+0  19462-3 0  9995","line2":"2 56073  87.8985 240.5160 0002198  83.0192 277.1188 13.15548524168758","mean_motion":13.15548524,"eccentricity":0.0002198,"inclination_deg":87.8985,"raan_deg":240.516,"arg_perigee_deg":83.0192,"mean_anomaly_deg":277.1188,"bstar":0.00019462,"rev_number":16875,"period_min":109.460044516,"perigee_km":1200.1048035832,"apogee_km":1203.4369310817,"semimajor_km":7579.9078673325,"source":"CELESTRAK","updated_at":"2026-09-20T09:00:44.792209Z"}}